Flag for Austria Weather past 2 weeks in Bruck an der Mur, Styria, Austria

Now
39 °F

Passing clouds.


Feels Like: 36 °F
Forecast: 25 / 40 °F
Wind: 5 mph from North

Location: Zeltweg

Current Time: Dec 21, 2014 at 12:57:31 AM

Latest Report: Dec 20, 2014 at 9:50 PM


Visibility: 9 mi

Pressure: 30.12 "Hg

Humidity: 65%

Dew point: 28 °F

Location of Bruck an der MurLocation

Historic Weather in Bruck an der Mur — Graph

°F

Bruck an der Mur temperature yesterday

Maximum temperature yesterday: 54 °F (at 12:50 PM)
Minimum temperature yesterday: 28 °F (at 4:50 AM)
Average temperature yesterday: 38 °F

Past Weeks' High & Low Weather Summary

 TemperatureHumidityPressure
High55 °F (Dec 19, 2:50 PM)100% (Dec 6, 5:50 AM)30.30 "Hg (Dec 6, 5:50 AM)
Low16 °F (Dec 10, 7:20 AM)38% (Dec 20, 12:50 PM)29.86 "Hg (Dec 16, 2:50 PM)
Average33 °F88%30.05 "Hg
* Reported Dec 5 9:50 PM — Dec 20 9:50 PM, Bruck an der Mur, Weather by CustomWeather, © 2014

Note: Actual official high and low records may vary slightly from our data, if they occured in-between our weather recording intervals... More about our weather records

Advertising

Bruck an der Mur weather history for previous 24 hours

 ConditionsComfort  
Time TempWeatherWind HumidityBarometerVisibility
9:50 PM
Dec 20
39 °FPassing clouds.5 mph65%30.12 "Hg9 mi
8:50 PM36 °FPassing clouds.2 mph75%30.09 "Hg9 mi
7:50 PM32 °FPassing clouds.2 mph87%30.07 "Hg9 mi
6:50 PM32 °FPassing clouds.3 mph87%30.07 "Hg12 mi
5:50 PM34 °FPassing clouds.3 mph87%30.07 "Hg12 mi
4:50 PM36 °FPassing clouds.1 mph75%30.07 "Hg19 mi
3:50 PM41 °FPartly sunny.1 mph66%30.07 "Hg31 mi
2:50 PM45 °FScattered clouds.2 mph57%30.07 "Hg25 mi
1:50 PM46 °FScattered clouds.2 mph50%30.07 "Hg31 mi
12:50 PM54 °FPassing clouds.3 mph38%30.12 "Hg31 mi
11:50 AM52 °FPassing clouds.3 mph44%30.15 "Hg31 mi
10:50 AM45 °FPassing clouds.5 mph76%30.18 "Hg31 mi
9:50 AM37 °FPassing clouds.3 mph87%30.18 "Hg31 mi
8:50 AM32 °FPassing clouds.2 mph93%30.18 "Hg25 mi
7:50 AM28 °FPassing clouds.3 mph93%30.15 "Hg19 mi
6:50 AM28 °FPassing clouds.2 mph100%30.12 "Hg9 mi
5:50 AM30 °FPassing clouds.2 mph93%30.12 "Hg6 mi
4:50 AM28 °FPassing clouds.1 mph100%30.09 "Hg6 mi
Weather by CustomWeather, © 2014

See weather overviewHow to use our weather pages